Weather History for Cavalier, ND

Change the Weather History Date:

Wednesday, September 19, 2012

  Actual Average (KGAF) Record (KGAF)
Temperature  
Mean Temperature 55 °F -  
Max Temperature 62 °F 68 °F 89 °F (1970)
Min Temperature 48 °F 45 °F 31 °F (1952)
Degree Days  
Heating Degree Days 10    
Growing Degree Days 5 (Base 50)    
Moisture  
Dew Point 39 °F    
Average Humidity 54    
Maximum Humidity 67    
Minimum Humidity 39    
Precipitation  
Precipitation 0.00 in - - ()
Sea Level Pressure  
Sea Level Pressure 29.69 in    
Wind  
Wind Speed 15 mph (NW)    
Max Wind Speed 29 mph    
Max Gust Speed 39 mph    
Visibility 10 miles    
Events      
Averages and records for this station are not official NWS values.
T = Trace of Precipitation, MM = Missing Value Source: NWS Daily Summary

Daily Weather History Graph

Daily Weather History Graph

Search for Another Location

Airport:

Trip Planner

Search our weather history database for the weather conditions in past years. The results will help you decide how hot, cold, wet, or windy it might be!

Date:

Astronomy

Sep. 19, 2012 Rise Set
Actual Time 7:13 AM CDT 7:33 PM CDT
Civil Twilight 6:42 AM CDT 8:05 PM CDT
Nautical Twilight 6:04 AM CDT 8:42 PM CDT
Astronomical Twilight 5:25 AM CDT 9:20 PM CDT
Moon 11:51 AM CDT (9/19) 9:16 PM CDT (9/19)
Length of Visible Light 13h 23m
Length of Day
12h 20m
Waxing Crescent, 17% of the Moon is Illuminated
Sep 19
Waxing Crescent
Sep 22
First Quarter
Sep 29
Full
Oct 8
Last Quarter
Oct 15
New

Hourly Weather History & Observations

Time (CDT) Temp. Dew Point Humidity Pressure Visibility Wind Dir Wind Speed Gust Speed Precip Events Conditions
12:15 AM 53.6 °F 35.6 °F 51% 29.55 in 10.0 mi SSW 13.8 mph - N/A   Clear
12:35 AM 53.6 °F 35.6 °F 51% 29.55 in 10.0 mi SSW 9.2 mph - N/A   Clear
12:55 AM 51.8 °F 35.6 °F 54% 29.53 in 10.0 mi SSW 9.2 mph - N/A   Clear
1:15 AM 50.0 °F 37.4 °F 62% 29.53 in 10.0 mi SSW 9.2 mph - N/A   Clear
1:35 AM 51.8 °F 37.4 °F 58% 29.52 in 10.0 mi SSW 10.4 mph - N/A   Clear
1:55 AM 50.0 °F 37.4 °F 62% 29.52 in 10.0 mi SW 11.5 mph - N/A   Clear
2:15 AM 53.6 °F 39.2 °F 58% 29.51 in 10.0 mi WSW 8.1 mph - N/A   Clear
2:35 AM 50.0 °F 37.4 °F 62% 29.51 in 10.0 mi WSW 6.9 mph - N/A   Clear
2:55 AM 55.4 °F 39.2 °F 54% 29.51 in 10.0 mi West 12.7 mph - N/A   Clear
3:15 AM 59.0 °F 41.0 °F 51% 29.52 in 10.0 mi WNW 13.8 mph 23.0 mph N/A   Clear
3:35 AM 60.8 °F 42.8 °F 52% 29.52 in 10.0 mi WNW 15.0 mph 23.0 mph N/A   Clear
3:55 AM 60.8 °F 44.6 °F 55% 29.52 in 10.0 mi WNW 12.7 mph 21.9 mph N/A   Clear
4:15 AM 60.8 °F 44.6 °F 55% 29.52 in 10.0 mi WNW 15.0 mph 26.5 mph N/A   Clear
4:55 AM 59.0 °F 44.6 °F 59% 29.53 in 10.0 mi WNW 15.0 mph 21.9 mph N/A   Clear
5:15 AM 59.0 °F 44.6 °F 59% 29.54 in 10.0 mi WNW 17.3 mph 23.0 mph N/A   Partly Cloudy
5:35 AM 57.2 °F 44.6 °F 63% 29.55 in 10.0 mi WNW 19.6 mph 25.3 mph N/A   Partly Cloudy
5:55 AM 57.2 °F 44.6 °F 63% 29.55 in 10.0 mi WNW 16.1 mph 24.2 mph N/A   Clear
6:15 AM 57.2 °F 44.6 °F 63% 29.56 in 10.0 mi WNW 16.1 mph 25.3 mph N/A   Scattered Clouds
6:35 AM 57.2 °F 44.6 °F 63% 29.56 in 10.0 mi WNW 15.0 mph 21.9 mph N/A   Mostly Cloudy
6:55 AM 57.2 °F 44.6 °F 63% 29.57 in 10.0 mi WNW 16.1 mph 26.5 mph N/A   Mostly Cloudy
7:15 AM 57.2 °F 44.6 °F 63% 29.58 in 10.0 mi WNW 23.0 mph 28.8 mph N/A   Overcast
7:35 AM 57.2 °F 44.6 °F 63% 29.59 in 10.0 mi NW 19.6 mph 29.9 mph N/A   Overcast
7:55 AM 57.2 °F 44.6 °F 63% 29.59 in 10.0 mi NW 19.6 mph 31.1 mph N/A   Overcast
8:15 AM 57.2 °F 42.8 °F 59% 29.60 in 10.0 mi WNW 21.9 mph 27.6 mph N/A   Overcast
8:35 AM 57.2 °F 42.8 °F 59% 29.61 in 5.0 mi WNW 20.7 mph 32.2 mph N/A   Haze
8:55 AM 55.4 °F 44.6 °F 67% 29.61 in 10.0 mi WNW 23.0 mph 32.2 mph N/A   Mostly Cloudy
9:15 AM 55.4 °F 42.8 °F 63% 29.62 in 10.0 mi WNW 23.0 mph 29.9 mph N/A   Mostly Cloudy
9:55 AM 57.2 °F 41.0 °F 55% 29.64 in 10.0 mi NW 20.7 mph 35.7 mph N/A   Scattered Clouds
10:15 AM 57.2 °F 41.0 °F 55% 29.65 in 10.0 mi NW 19.6 mph 31.1 mph N/A   Mostly Cloudy
10:35 AM 55.4 °F 41.0 °F 58% 29.66 in 10.0 mi NW 19.6 mph 35.7 mph N/A   Mostly Cloudy
10:55 AM 57.2 °F 41.0 °F 55% 29.67 in 10.0 mi NW 25.3 mph 32.2 mph N/A   Mostly Cloudy
11:15 AM 55.4 °F 41.0 °F 58% 29.68 in 10.0 mi NW 25.3 mph 34.5 mph N/A   Overcast
11:35 AM 57.2 °F 41.0 °F 55% 29.69 in 10.0 mi NNW 24.2 mph 33.4 mph N/A   Mostly Cloudy
11:55 AM 57.2 °F 41.0 °F 55% 29.70 in 10.0 mi NW 21.9 mph 32.2 mph N/A   Mostly Cloudy
12:15 PM 57.2 °F 41.0 °F 55% 29.70 in 10.0 mi NW 28.8 mph 39.1 mph N/A   Mostly Cloudy
12:35 PM 57.2 °F 41.0 °F 55% 29.71 in 10.0 mi NNW 26.5 mph 35.7 mph N/A   Mostly Cloudy
12:55 PM 57.2 °F 39.2 °F 51% 29.72 in 10.0 mi NNW 26.5 mph 36.8 mph N/A   Mostly Cloudy
1:15 PM 57.2 °F 39.2 °F 51% 29.73 in 10.0 mi NW 19.6 mph 28.8 mph N/A   Overcast
1:35 PM 59.0 °F 39.2 °F 48% 29.74 in 10.0 mi NNW 24.2 mph 32.2 mph N/A   Mostly Cloudy
1:55 PM 57.2 °F 37.4 °F 48% 29.75 in 10.0 mi NW 20.7 mph 35.7 mph N/A   Mostly Cloudy
2:15 PM 62.6 °F 37.4 °F 39% 29.74 in 3.0 mi NNW 23.0 mph 31.1 mph N/A   Haze
2:35 PM 60.8 °F 37.4 °F 42% 29.74 in 10.0 mi NNW 19.6 mph 28.8 mph N/A   Partly Cloudy
2:55 PM 60.8 °F 37.4 °F 42% 29.75 in 10.0 mi NNW 20.7 mph 27.6 mph N/A   Mostly Cloudy
3:15 PM 60.8 °F 35.6 °F 39% 29.75 in 10.0 mi North 21.9 mph 28.8 mph N/A   Overcast
3:35 PM 60.8 °F 35.6 °F 39% 29.76 in 10.0 mi NNW 18.4 mph 27.6 mph N/A   Mostly Cloudy
3:55 PM 60.8 °F 35.6 °F 39% 29.76 in 10.0 mi NNW 21.9 mph 28.8 mph N/A   Mostly Cloudy
4:15 PM 59.0 °F 35.6 °F 42% 29.77 in 10.0 mi North 16.1 mph 28.8 mph N/A   Mostly Cloudy
4:35 PM 59.0 °F 35.6 °F 42% 29.78 in 10.0 mi NNW 20.7 mph 27.6 mph N/A   Mostly Cloudy
4:55 PM 59.0 °F 35.6 °F 42% 29.78 in 10.0 mi NNW 18.4 mph 26.5 mph N/A   Mostly Cloudy
5:15 PM 59.0 °F 35.6 °F 42% 29.79 in 10.0 mi NNW 20.7 mph 33.4 mph N/A   Scattered Clouds
5:35 PM 60.8 °F 35.6 °F 39% 29.80 in 10.0 mi NNW 26.5 mph 33.4 mph N/A   Mostly Cloudy
5:55 PM 59.0 °F 35.6 °F 42% 29.81 in 10.0 mi NNW 18.4 mph 32.2 mph N/A   Mostly Cloudy
6:15 PM 59.0 °F 35.6 °F 42% 29.81 in 10.0 mi NNW 15.0 mph 24.2 mph N/A   Mostly Cloudy
6:35 PM 59.0 °F 35.6 °F 42% 29.82 in 10.0 mi NNW 16.1 mph 28.8 mph N/A   Mostly Cloudy
6:55 PM 59.0 °F 35.6 °F 42% 29.82 in 10.0 mi North 17.3 mph 27.6 mph N/A   Mostly Cloudy
7:15 PM 57.2 °F 35.6 °F 44% 29.83 in 10.0 mi North 16.1 mph 21.9 mph N/A   Overcast
7:35 PM 57.2 °F 35.6 °F 44% 29.83 in 10.0 mi NNW 11.5 mph - N/A   Scattered Clouds
7:55 PM 55.4 °F 35.6 °F 47% 29.84 in 10.0 mi North 9.2 mph - N/A   Clear
8:15 PM 53.6 °F 35.6 °F 51% 29.86 in 10.0 mi North 9.2 mph - N/A   Clear
8:35 PM 53.6 °F 35.6 °F 51% 29.87 in 10.0 mi North 9.2 mph - N/A   Clear
8:55 PM 51.8 °F 37.4 °F 58% 29.88 in 10.0 mi NNW 9.2 mph - N/A   Clear
9:15 PM 51.8 °F 37.4 °F 58% 29.88 in 10.0 mi NNW 9.2 mph - N/A   Clear
9:35 PM 50.0 °F 37.4 °F 62% 29.88 in 10.0 mi NNW 10.4 mph - N/A   Clear
9:55 PM 50.0 °F 37.4 °F 62% 29.88 in 10.0 mi NNW 8.1 mph - N/A   Clear
10:15 PM 50.0 °F 37.4 °F 62% 29.89 in 10.0 mi NW 8.1 mph - N/A   Clear
10:35 PM 50.0 °F 37.4 °F 62% 29.89 in 10.0 mi WNW 8.1 mph - N/A   Clear
10:55 PM 48.2 °F 37.4 °F 66% 29.89 in 10.0 mi WNW 8.1 mph - N/A   Clear
11:35 PM 48.2 °F 37.4 °F 66% 29.89 in 10.0 mi WNW 9.2 mph - N/A   Clear
11:55 PM 48.2 °F 37.4 °F 66% 29.89 in 10.0 mi WNW 8.1 mph - N/A   Clear